Theta_e
321 323 322 321 320 322 324 326 327 328 329 330 331 331 331 330 330 333 336 339 343 344 346 347 346 348 348 349 350 350 350 350 349 350 349 350 350 349 350 350 350 350 350 351 351 351 351 351 351 351 351 351 351 350 350 349 348 345 342 339 338 337 337 338 339 337 335 334 333 336 339 340 342 344 345 345 345 346 348 350 351 351 350 349 349 347
322 322 322 321 322 324 327 329 329 328 328 329 329 329 330 330 330 333 333 335 340 344 344 346 345 347 348 348 350 350 350 350 349 349 350 349 349 349 349 349 350 350 350 350 351 351 351 351 351 351 351 351 351 351 350 350 349 347 344 341 338 338 338 339 338 337 336 336 336 337 339 340 342 343 345 346 345 345 347 350 351 351 350 350 350 347
323 323 322 323 326 328 330 330 329 328 329 328 328 327 326 328 330 332 333 333 335 340 343 345 345 345 347 347 348 350 350 349 350 350 349 349 349 349 349 349 349 349 349 350 350 351 351 351 351 351 352 351 351 351 351 350 349 348 347 345 342 339 339 339 338 337 338 339 338 339 339 341 342 343 345 346 346 346 348 350 350 350 350 350 349 346
324 324 324 326 328 329 330 330 328 328 328 327 327 325 324 327 328 329 332 332 334 338 340 343 343 342 345 347 347 348 349 349 349 350 350 350 349 349 349 349 348 349 349 349 350 350 350 351 351 351 351 351 351 351 351 350 350 350 349 348 346 341 339 338 338 339 340 340 340 340 341 341 343 344 346 348 349 348 348 349 349 349 351 351 349 346
325 326 326 328 329 329 329 329 328 327 327 327 327 325 324 327 327 328 331 332 332 334 335 336 336 339 345 346 347 347 348 349 349 349 349 349 349 349 349 349 348 349 348 349 350 350 350 350 351 351 351 351 351 351 351 351 351 350 350 350 348 344 342 340 339 340 341 341 342 342 342 343 344 346 348 350 351 349 347 346 346 347 350 351 350 347
325 326 325 327 329 329 329 329 328 327 326 326 327 326 326 327 327 328 330 331 329 329 334 332 329 337 346 345 347 347 347 349 348 349 349 348 349 348 349 349 348 349 349 349 349 350 350 350 350 351 351 351 351 351 351 351 351 351 351 350 349 348 346 343 342 340 342 343 343 343 343 344 345 346 348 349 349 347 344 342 342 345 349 351 350 348
324 325 326 327 328 329 330 329 328 328 326 324 326 327 327 328 327 327 328 329 327 328 334 332 329 334 341 342 347 347 346 349 347 347 349 348 349 348 348 349 348 349 349 349 349 349 350 350 350 351 351 351 351 351 351 351 351 351 351 351 351 350 349 347 344 341 342 343 344 344 344 344 344 344 345 345 344 343 341 340 341 343 347 349 349 348
325 325 326 327 327 327 328 329 329 328 325 324 327 328 327 328 327 326 326 327 329 330 330 332 330 330 334 339 345 346 346 348 348 347 348 347 348 348 348 349 349 349 349 349 349 349 350 350 350 350 351 351 351 351 351 351 351 351 351 351 351 351 351 349 347 344 343 343 344 344 344 343 342 343 342 341 342 342 341 340 340 341 344 347 347 347
326 325 326 327 327 327 327 328 330 328 326 326 328 328 327 328 327 327 327 326 329 328 324 328 328 327 334 344 344 346 347 347 348 347 347 347 347 348 348 348 349 349 349 349 349 349 350 350 350 350 350 350 350 351 351 351 351 351 351 351 351 352 351 351 349 347 345 344 344 344 344 343 343 343 343 342 342 341 341 340 340 339 341 344 345 345
328 326 326 326 326 327 327 328 330 329 328 328 330 330 328 328 327 328 329 328 327 326 323 325 325 324 333 343 343 344 346 345 348 347 346 346 346 347 348 348 349 349 349 349 348 349 349 349 350 350 350 350 350 351 351 351 351 351 351 351 351 352 351 351 350 349 348 346 346 345 344 343 343 344 344 344 342 341 340 340 340 339 339 341 341 342
328 327 327 326 327 327 328 328 328 329 329 329 330 330 329 330 330 330 332 329 325 324 323 324 326 324 327 335 341 344 345 345 346 346 345 345 345 346 347 348 349 349 349 349 349 348 349 349 349 349 350 350 350 351 351 352 352 351 352 351 352 352 352 351 350 348 348 347 347 346 344 343 342 343 344 343 342 340 340 340 339 339 338 339 339 339
327 328 328 328 327 327 328 328 327 329 329 330 331 329 328 328 328 327 327 327 325 324 325 325 327 323 323 331 340 344 346 345 345 346 346 345 344 345 345 347 348 349 349 349 349 349 348 348 349 349 349 350 350 351 351 352 351 352 352 351 352 352 352 351 351 349 348 347 346 345 344 343 342 342 342 341 340 339 338 338 338 338 338 338 338 338
325 327 329 329 329 329 329 328 328 328 329 330 330 328 326 325 326 326 325 325 325 328 331 328 325 322 323 329 336 342 345 344 344 344 344 344 344 345 345 346 347 348 349 349 349 348 348 348 349 349 349 350 350 350 351 351 351 351 352 352 352 352 352 351 351 350 349 348 346 344 343 343 342 342 341 339 338 337 337 337 337 337 337 337 337 337
321 324 327 327 329 329 329 328 326 326 328 329 327 326 325 325 326 327 326 324 323 327 329 326 324 323 323 328 331 337 343 344 343 343 343 344 344 344 345 345 346 348 348 349 349 349 348 348 348 348 349 349 350 350 350 351 351 351 352 351 352 351 351 351 351 350 350 349 347 345 344 343 343 342 341 340 338 337 337 337 337 337 336 336 335 334
318 320 324 326 327 329 330 328 327 328 328 329 329 328 325 325 326 327 327 325 323 325 324 322 323 323 323 331 334 332 337 342 342 344 343 343 344 344 345 345 346 347 348 348 349 349 349 349 348 348 348 349 349 350 350 351 351 351 352 352 351 351 351 350 350 350 349 349 348 347 346 345 345 344 342 340 338 337 337 337 337 337 337 336 334 332
318 319 321 325 326 327 330 329 327 328 326 327 330 328 324 326 327 327 328 328 324 324 322 320 326 329 329 337 338 329 332 339 340 342 343 342 344 344 344 345 345 347 348 348 349 349 349 349 349 348 348 349 349 349 350 350 351 351 351 352 351 350 351 350 350 350 349 349 348 349 348 347 347 346 345 342 339 338 338 337 338 337 337 336 333 331
322 323 320 322 325 325 328 329 327 327 326 327 327 326 327 328 326 324 325 326 321 319 322 321 322 326 325 329 331 327 330 336 338 341 341 340 343 343 344 345 345 346 347 348 349 349 349 349 349 349 348 349 349 349 350 350 350 351 351 351 351 350 350 350 350 349 348 348 348 349 349 348 347 347 345 341 338 337 338 337 338 339 338 337 334 331
319 322 319 320 326 324 323 327 328 327 328 327 324 325 327 327 327 325 322 323 320 319 324 324 320 320 321 328 335 330 329 333 336 339 340 340 342 343 344 345 345 347 347 348 348 349 349 349 349 349 348 349 349 349 350 350 350 350 350 351 350 350 350 350 349 349 348 348 349 349 349 349 348 346 344 341 338 337 337 337 338 339 339 337 334 331
315 320 322 321 323 323 321 323 324 326 326 326 326 326 327 324 323 323 322 322 321 319 322 324 323 322 321 328 334 329 327 332 335 337 339 340 341 343 344 345 345 347 347 348 349 348 349 349 349 349 349 348 349 349 349 350 350 350 350 350 350 350 350 350 349 349 349 348 349 349 349 349 348 345 343 341 340 337 336 336 337 338 338 337 336 332
314 322 326 322 321 320 321 321 320 322 324 325 326 327 328 326 322 323 323 321 322 323 322 321 321 323 326 330 331 329 330 332 335 338 339 338 340 341 343 344 345 346 348 348 349 349 349 349 349 349 349 349 349 349 349 349 350 350 350 350 350 350 350 350 349 349 349 349 349 349 349 349 348 346 343 341 340 338 335 334 334 335 336 336 336 333
315 320 323 322 319 320 324 323 320 321 323 322 322 322 324 325 323 323 323 322 325 328 327 321 317 323 334 336 331 332 333 329 333 340 341 338 339 341 343 344 345 346 347 348 349 350 350 350 350 350 350 349 349 349 349 350 350 350 350 350 351 350 351 350 349 349 349 349 349 349 349 349 348 346 344 342 341 339 336 334 333 333 334 335 335 333
316 319 320 320 320 322 324 323 322 323 323 322 322 322 322 322 322 321 321 323 325 326 329 325 317 323 336 335 329 332 335 329 329 337 342 340 338 341 343 344 345 345 347 348 349 350 350 350 350 350 350 350 349 349 349 350 350 350 350 351 351 351 350 350 350 349 349 349 349 349 349 349 349 347 346 345 343 341 338 336 334 332 333 335 333 332
316 318 319 318 318 319 319 320 320 321 323 324 323 323 324 325 321 319 320 323 321 322 328 327 318 323 338 339 331 328 330 328 325 330 339 340 339 341 342 343 346 345 346 348 348 350 351 350 351 351 350 350 350 349 350 350 350 350 350 351 350 351 350 350 350 350 349 350 350 350 350 350 350 348 348 347 345 342 340 338 336 334 333 332 331 330
316 317 316 315 319 320 319 321 321 321 323 325 324 323 323 324 322 322 326 327 322 319 322 322 318 324 342 353 342 331 328 327 322 324 333 338 340 342 342 343 345 345 346 348 348 349 350 350 351 351 350 351 350 350 350 350 350 351 351 351 350 351 350 350 350 350 350 351 350 350 351 350 350 350 349 348 346 344 341 339 338 336 334 333 332 330
314 316 315 317 326 328 321 322 326 326 323 319 321 322 322 324 324 325 328 326 323 321 320 320 318 322 340 356 346 335 334 333 326 323 327 335 339 342 343 343 345 346 347 347 348 349 350 351 352 351 351 351 350 351 350 350 351 351 350 351 351 351 351 351 351 351 351 351 351 351 351 351 351 351 350 349 347 344 342 339 338 337 336 334 333 331
313 315 315 317 324 327 323 323 325 323 318 315 319 321 321 324 322 323 325 321 321 325 322 319 319 322 335 343 335 332 336 337 332 324 323 331 337 340 343 344 345 347 347 348 348 349 350 351 351 351 352 351 351 351 351 350 351 351 351 351 351 351 352 352 352 352 351 352 352 352 352 352 352 352 351 350 348 345 342 340 339 338 336 335 334 332
313 316 315 316 318 319 319 319 317 316 315 315 318 318 319 321 321 324 324 320 324 329 323 321 323 324 327 330 327 328 332 336 335 327 323 328 335 340 343 344 345 347 347 348 349 349 350 351 351 351 351 352 351 351 351 351 351 351 352 352 352 352 352 352 352 353 353 353 352 352 353 353 353 352 352 350 348 346 343 341 339 338 336 335 334 332
314 315 314 315 316 314 314 315 313 314 314 314 315 316 318 321 323 324 321 321 330 327 319 325 331 325 323 327 328 326 330 337 340 331 325 328 335 340 343 344 345 346 347 349 349 349 350 350 351 352 351 352 352 351 351 352 352 352 352 352 353 353 353 353 354 353 353 353 353 353 353 353 353 353 353 352 350 348 345 342 339 337 336 335 334 332
313 313 312 313 314 313 312 312 312 313 313 314 316 317 319 321 324 324 322 324 331 324 319 333 341 330 324 327 327 325 331 337 335 329 325 329 337 341 343 345 345 346 347 348 349 349 350 350 350 351 351 351 352 351 351 351 352 352 353 353 354 354 354 354 354 354 354 354 354 354 354 354 354 354 354 354 353 351 348 344 341 339 337 336 335 333
311 314 314 312 312 312 311 312 312 313 315 316 318 321 323 325 326 326 324 326 330 327 326 337 343 335 327 327 328 327 330 332 329 327 328 333 339 341 343 344 345 346 347 348 349 349 349 350 350 350 351 352 352 352 351 351 352 352 353 354 354 354 355 355 355 355 355 354 355 354 354 354 355 355 355 355 354 353 351 348 345 342 339 338 337 335
311 313 313 312 312 312 311 313 314 313 314 317 322 326 327 329 328 325 326 328 327 329 330 333 337 336 332 336 340 334 330 333 335 333 332 335 338 340 342 343 344 346 347 347 348 349 349 350 350 350 351 351 351 351 351 350 351 352 353 354 354 355 355 355 355 355 355 355 355 355 355 355 356 356 356 356 355 355 353 351 349 346 343 340 339 337
310 312 312 311 312 312 312 313 313 313 317 323 327 327 329 334 332 329 334 337 334 332 332 331 331 333 338 346 346 338 337 346 352 342 333 334 338 339 340 343 344 345 346 347 347 348 349 349 349 350 351 350 351 351 350 350 350 351 352 353 354 355 356 356 356 356 356 355 355 355 356 356 356 357 357 357 356 356 355 353 351 349 347 344 342 340
310 311 311 312 313 314 313 311 313 319 327 333 330 326 329 336 338 338 340 340 337 339 338 335 333 336 342 342 341 348 358 365 364 351 339 335 338 339 340 342 344 345 346 347 347 348 349 349 349 350 350 350 351 350 349 349 349 349 349 351 352 354 355 356 356 356 356 355 355 355 355 356 356 357 357 357 357 357 356 355 354 352 351 348 346 343
310 311 311 311 313 314 312 311 320 331 337 336 331 325 326 330 334 338 340 337 336 339 340 340 340 339 343 343 346 360 365 361 358 354 347 340 339 339 340 342 343 345 346 346 347 348 348 348 349 349 349 350 350 349 348 349 348 348 348 350 351 353 354 355 355 355 354 353 354 355 355 356 357 357 357 358 358 358 358 357 356 355 354 352 350 348
310 310 310 311 312 315 314 316 331 343 337 332 329 324 323 326 327 333 339 337 335 335 336 340 342 343 351 356 353 355 356 354 354 355 353 350 344 340 342 342 342 345 345 346 347 347 347 348 348 348 349 349 349 349 349 349 349 349 350 350 351 352 353 354 354 353 353 353 354 355 356 357 358 358 359 359 359 359 359 358 358 357 356 355 354 352
310 310 311 311 312 315 317 320 330 337 331 328 328 323 322 325 324 329 338 339 335 333 334 338 342 345 352 356 354 355 354 353 354 354 354 355 354 348 345 344 344 344 344 346 346 347 347 348 348 348 348 349 349 349 350 350 351 351 351 351 351 352 353 353 354 354 354 354 356 357 357 358 359 359 360 360 360 360 359 359 359 359 359 358 357 356
310 310 310 311 313 316 316 315 321 330 332 330 328 323 321 323 323 325 334 339 336 332 332 336 340 344 347 348 350 352 353 353 354 352 352 354 355 356 353 350 347 345 344 345 346 346 347 347 347 348 349 349 350 350 351 352 352 353 353 353 353 353 354 354 355 355 355 356 357 358 359 360 360 361 361 361 361 361 361 361 361 361 361 360 360 359
310 310 310 312 314 315 314 313 318 330 336 331 325 321 320 324 323 322 330 339 337 331 330 334 339 344 346 346 347 349 351 356 357 353 352 352 353 356 358 357 353 350 347 346 345 345 345 346 346 347 348 349 350 351 352 353 353 354 355 355 355 355 356 356 357 357 357 358 359 360 361 361 361 361 361 361 361 362 362 362 362 363 363 362 362 362
310 310 310 311 313 312 312 313 316 326 331 327 322 321 322 325 324 324 334 342 336 329 329 332 337 342 345 347 350 352 354 357 357 353 352 354 354 354 358 360 360 357 354 352 350 348 347 348 348 350 350 351 351 351 351 351 352 354 355 357 357 358 358 358 358 359 360 361 361 361 362 362 362 362 362 362 362 362 363 363 363 364 364 364 364 363
311 311 310 311 312 312 313 313 315 323 329 325 321 322 324 325 326 332 343 344 334 329 329 329 333 339 343 346 350 352 354 355 354 352 353 355 355 355 356 358 359 360 359 358 357 356 356 355 354 355 357 357 357 356 355 355 355 355 356 358 359 359 360 361 360 362 362 362 363 363 363 363 363 363 363 363 363 363 364 364 364 365 365 365 365 364
313 313 313 312 312 313 315 313 314 322 327 323 321 323 325 327 331 338 342 337 331 329 328 326 329 334 339 343 347 348 350 351 350 351 353 354 355 354 354 355 356 356 356 358 359 360 361 361 361 361 361 361 361 361 361 362 363 362 361 362 362 362 363 363 363 364 364 364 364 364 364 364 364 364 364 364 364 364 364 364 365 365 365 365 365 365
314 314 314 313 312 313 314 313 315 323 324 320 321 323 325 330 335 337 334 329 327 328 327 325 326 328 333 339 342 343 345 347 349 351 352 353 354 354 354 354 354 353 352 352 352 355 358 359 360 361 361 360 361 362 362 363 364 364 364 364 364 365 365 365 365 365 365 365 365 365 365 364 365 365 365 365 365 365 365 366 366 365 365 365 365 365
315 315 314 315 316 315 314 315 321 326 323 319 321 324 325 328 331 330 329 326 324 325 326 325 325 325 329 333 336 339 342 344 347 349 350 352 353 353 355 355 355 355 355 351 348 346 345 345 347 348 349 351 353 355 358 360 360 361 362 362 362 363 363 364 365 365 365 366 366 366 366 366 366 366 365 365 366 366 366 366 365 366 366 365 366 365
315 316 316 317 318 318 318 321 324 323 319 318 322 325 325 324 324 326 327 325 322 323 324 325 325 325 327 329 331 335 339 341 344 345 347 349 351 352 354 355 355 357 357 356 355 350 340 335 335 336 335 336 338 340 344 348 351 354 356 357 358 359 360 360 361 361 362 362 362 363 364 364 366 366 366 366 366 365 366 366 365 366 366 366 365 366
314 314 315 315 316 316 319 322 322 318 317 319 323 325 324 321 320 322 324 322 321 322 323 324 325 326 328 328 329 332 335 337 340 342 344 346 347 349 351 352 354 356 356 357 358 356 351 346 343 340 339 338 336 334 333 335 337 340 344 346 349 351 353 356 357 358 358 359 359 359 359 360 361 363 364 365 365 365 366 365 365 366 366 366 366 365
312 311 312 313 314 314 315 318 317 316 317 320 321 321 321 319 317 318 320 320 320 320 321 323 325 326 326 326 328 330 331 331 334 337 340 344 345 346 347 349 351 353 353 353 354 354 354 354 351 348 348 346 344 341 338 336 336 337 340 342 342 342 343 345 348 350 353 354 356 356 357 358 359 359 360 361 362 363 363 364 364 365 365 366 365 366
311 311 311 312 312 313 314 315 314 314 316 318 318 317 316 316 315 316 317 319 320 319 319 320 323 323 322 321 324 327 327 326 327 331 335 340 343 344 345 347 349 350 351 351 350 350 349 349 349 348 347 345 345 344 342 341 341 342 345 348 348 346 345 345 345 346 348 349 351 352 354 355 356 357 358 359 360 361 361 362 364 364 365 365 365 365
310 311 312 311 311 312 313 312 312 312 314 316 316 314 313 313 313 314 315 316 319 319 318 319 321 322 321 319 319 322 324 323 324 326 328 333 338 341 342 343 346 349 351 351 351 350 349 348 347 347 345 344 343 342 341 340 342 343 347 350 352 353 353 354 354 354 354 354 354 354 354 355 355 358 359 358 358 359 360 362 363 364 365 365 365 365
310 311 311 310 311 311 311 311 312 313 313 314 314 313 312 312 312 312 313 314 316 318 317 318 319 320 322 321 319 319 322 322 321 321 322 324 331 336 337 338 341 344 348 351 352 351 350 350 349 347 346 344 343 342 340 339 338 339 342 346 350 352 355 357 359 360 361 361 360 360 360 360 360 360 360 359 358 358 359 361 363 364 365 366 366 366
310 310 309 309 310 311 311 311 312 312 312 312 312 311 311 311 311 311 311 312 314 316 317 317 317 318 322 325 322 319 322 323 320 317 317 320 323 326 329 333 336 337 341 347 351 351 350 349 348 346 345 343 342 342 341 339 338 338 339 343 347 352 356 359 361 361 362 361 361 362 362 362 363 362 360 360 359 359 359 360 361 363 365 366 367 367
309 309 308 309 309 310 310 310 310 310 310 310 310 310 311 311 310 311 311 311 314 316 317 317 317 317 320 323 321 317 318 321 320 316 316 318 319 319 320 325 332 335 337 341 347 350 349 348 346 344 344 343 343 342 342 342 342 342 342 344 347 350 354 359 361 362 362 361 360 361 362 362 363 363 362 361 361 360 360 360 361 362 364 366 367 368
Wind_Speed
16 7 7 12 13 15 13 11 10 7 7 5 4 5 6 6 6 6 5 5 7 9 9 12 10 8 11 15 18 27 31 26 25 28 29 32 34 35 37 38 39 42 44 46 46 46 46 46 45 45 44 42 41 40 40 40 39 40 41 43 43 42 41 39 38 37 35 35 33 32 31 29 27 25 24 23 22 21 21 20 18 17 15 13 13 13
14 8 12 16 12 11 10 7 8 10 10 8 5 4 5 6 7 7 6 4 4 6 8 10 9 9 13 14 18 24 24 21 25 28 29 32 35 36 38 39 42 42 40 40 43 45 46 46 46 46 45 44 44 42 41 40 39 38 39 40 41 42 41 40 39 38 36 36 35 33 32 30 28 26 26 25 24 23 22 21 20 19 16 14 15 15
9 11 16 13 7 7 7 7 9 10 10 8 5 4 5 4 2 7 8 5 3 5 5 7 9 10 13 14 16 22 22 25 34 36 35 37 36 36 39 40 42 42 39 39 42 44 46 48 47 47 47 47 46 44 41 40 38 39 39 39 39 40 41 41 40 39 37 36 35 33 31 30 28 28 27 26 24 24 24 23 21 19 17 15 15 16
7 11 12 9 8 9 8 7 9 8 7 7 5 5 6 2 1 5 6 3 3 5 4 5 7 8 11 12 12 22 28 29 36 40 39 41 42 42 45 45 44 44 43 43 44 44 45 46 48 49 49 49 48 46 44 42 41 40 40 39 39 40 41 41 40 39 37 35 34 33 31 29 29 28 28 27 25 24 25 25 23 21 18 16 15 16
7 6 9 10 9 11 10 8 8 8 6 8 9 8 7 5 7 7 4 4 3 4 2 3 3 3 8 12 9 17 24 24 29 33 31 36 41 43 43 43 44 46 47 46 47 48 46 47 49 50 49 49 49 49 47 45 43 42 40 39 38 39 40 41 41 39 38 36 35 34 33 31 30 30 29 29 28 27 27 27 25 23 20 18 16 16
10 8 11 13 11 11 12 10 8 9 6 7 11 12 10 8 9 6 3 4 4 5 3 4 2 5 6 15 14 12 14 16 20 23 27 33 35 35 37 39 42 44 46 48 50 52 51 50 49 48 49 49 50 51 49 46 45 43 41 39 38 38 39 40 41 40 39 38 38 37 36 35 34 34 33 32 32 30 28 28 26 23 21 20 18 16
8 9 9 11 13 12 11 11 10 10 6 8 11 11 10 10 10 5 0 2 3 5 5 3 4 5 4 12 17 15 15 18 17 17 25 31 32 34 38 39 42 43 44 46 49 51 52 51 50 49 50 50 51 51 50 48 46 44 42 41 39 38 38 39 40 41 41 40 40 39 38 37 37 36 35 34 32 30 29 27 26 24 22 21 20 18
8 10 10 9 12 12 10 11 10 11 8 8 8 7 7 9 12 8 3 4 4 4 6 2 3 3 3 9 15 17 19 19 17 18 21 26 31 37 40 41 43 45 45 47 48 50 51 51 51 51 52 52 52 51 50 49 48 46 44 42 41 39 38 38 39 41 41 41 41 41 40 39 38 37 35 33 32 31 29 28 26 25 23 22 21 19
9 12 13 11 10 10 11 12 10 11 10 6 4 5 6 8 11 6 5 5 4 3 8 7 3 3 4 7 11 15 19 18 19 20 19 23 32 38 40 42 45 47 47 48 50 51 52 53 53 54 53 53 51 50 51 50 49 47 45 44 42 41 39 38 38 39 41 42 42 42 42 41 39 37 35 34 33 32 30 29 27 26 24 23 22 20
7 12 16 13 10 8 9 10 10 11 9 3 6 5 4 7 8 4 6 5 3 3 10 10 4 3 5 5 7 11 15 17 18 18 18 25 35 40 42 44 45 46 46 48 50 51 53 54 55 55 53 52 51 50 51 50 49 48 47 47 45 43 41 38 37 38 41 42 43 43 44 43 41 39 38 36 34 33 31 30 29 27 25 23 22 21
5 11 17 13 11 8 6 8 10 13 10 4 5 4 2 5 4 2 4 4 3 6 11 14 8 6 5 5 7 10 13 17 16 15 16 22 31 37 41 43 44 45 47 49 49 49 51 53 53 53 52 51 51 50 50 51 51 50 49 49 48 46 43 40 38 37 39 42 43 44 44 43 42 40 39 38 36 34 33 31 29 27 25 24 23 22
6 8 8 9 15 13 7 7 10 12 12 6 5 5 3 4 2 0 2 4 7 8 9 12 9 8 7 6 6 12 17 20 19 17 18 19 26 35 40 42 44 47 48 48 47 46 48 50 50 51 51 51 52 51 51 52 52 52 51 50 49 48 46 43 40 38 39 41 42 43 44 44 43 41 40 38 37 35 34 32 30 28 27 26 25 23
7 9 5 5 15 16 10 7 7 8 10 8 6 6 5 3 2 4 4 4 7 7 7 8 6 6 8 7 9 15 19 21 19 21 25 26 30 38 42 43 45 47 47 46 46 47 48 50 51 51 51 51 52 53 53 53 52 53 52 52 51 50 48 45 43 41 40 40 41 42 42 43 43 43 41 39 37 35 34 33 31 30 28 27 26 25
5 8 9 9 9 14 14 8 6 7 8 10 8 7 7 5 5 8 5 3 4 4 7 7 5 4 5 6 11 16 19 23 25 28 33 37 40 43 45 47 46 46 47 47 48 48 49 51 52 52 53 53 53 54 54 54 54 53 53 53 52 50 48 47 45 43 41 40 41 41 41 41 42 42 42 40 38 35 34 33 33 31 29 28 27 26
7 8 10 13 7 10 14 11 9 8 6 10 9 7 8 6 6 7 4 4 4 4 6 5 5 5 5 5 10 15 20 27 32 36 36 36 41 44 43 44 45 45 46 47 48 50 51 53 53 53 54 54 54 54 54 54 54 54 54 54 53 51 49 48 47 44 42 41 40 40 41 40 40 41 41 41 39 36 35 34 34 32 30 28 26 25
6 6 3 8 8 10 13 11 11 9 6 8 8 8 9 6 4 3 4 5 4 3 5 4 4 5 4 5 6 9 15 22 29 33 30 28 32 34 33 36 41 43 45 46 48 50 51 51 52 54 55 55 55 54 55 55 56 56 56 55 54 52 50 49 48 46 43 41 40 41 41 41 40 40 40 40 39 38 36 35 35 33 31 28 25 24
4 5 5 8 8 9 13 12 12 11 6 3 7 10 6 5 5 4 4 1 3 4 6 3 4 4 2 5 4 6 9 13 18 22 23 25 29 29 30 34 39 42 44 47 50 52 52 51 52 54 55 55 55 56 56 57 57 58 57 56 55 53 52 50 48 46 44 42 42 42 42 42 41 41 40 39 38 38 36 35 35 35 33 30 26 23
4 7 10 9 8 9 8 10 12 14 10 4 6 8 4 5 4 4 3 3 2 6 5 1 5 4 3 5 3 7 9 10 13 16 19 23 27 29 33 38 40 43 46 49 52 53 52 51 52 53 54 55 56 57 57 58 58 58 58 57 56 55 54 52 50 47 45 43 43 42 42 42 42 41 40 38 37 36 36 36 36 36 35 32 28 25
5 5 9 6 6 8 8 5 8 11 14 9 5 7 6 4 6 5 4 5 5 5 5 3 4 5 5 5 5 8 9 9 12 15 17 19 21 26 34 40 43 44 45 47 49 49 49 50 51 53 54 54 55 56 57 57 57 57 57 57 56 55 54 53 51 49 46 45 44 43 42 42 41 40 39 39 38 36 36 36 36 37 36 33 31 27
5 2 5 4 3 8 6 4 6 8 12 9 5 7 7 5 6 6 4 3 4 4 3 3 3 4 6 5 7 10 10 10 11 13 15 17 20 28 34 38 42 43 44 45 46 47 49 51 53 54 55 55 55 55 55 56 56 56 57 57 56 55 54 53 52 50 48 46 45 43 42 42 41 40 39 39 38 37 36 35 35 36 36 35 33 30
4 1 4 7 9 7 4 4 5 7 7 7 6 7 7 4 3 5 4 3 4 3 3 3 4 6 6 5 8 10 9 10 12 12 13 16 23 32 36 39 42 44 46 47 48 49 51 53 53 54 54 53 53 53 53 54 55 55 55 56 56 55 55 55 53 51 49 47 45 44 43 42 41 41 40 40 40 39 37 35 35 35 35 35 34 32
3 1 4 7 7 4 7 6 2 2 4 5 5 6 8 6 4 5 6 2 3 4 4 4 5 7 6 5 8 9 9 9 11 14 12 16 26 33 37 42 45 46 48 49 50 51 52 53 53 53 51 50 50 51 52 53 53 54 55 55 55 55 55 55 54 52 50 48 46 45 43 42 41 41 42 42 41 40 38 37 36 35 36 36 35 33
5 2 4 7 6 8 17 17 11 9 10 7 6 6 8 6 5 7 7 4 4 4 2 2 3 8 6 6 8 9 11 11 13 15 13 18 30 36 37 43 46 48 50 51 52 53 53 54 54 52 50 49 49 50 51 52 53 54 55 55 54 54 55 55 54 52 50 48 47 45 43 42 42 42 42 43 43 42 40 39 37 36 37 36 35 34
7 2 3 6 6 9 15 14 10 9 6 4 5 4 5 7 8 7 5 5 5 4 4 2 6 9 6 3 5 7 8 10 12 17 18 19 28 36 39 42 45 47 50 52 52 52 52 51 50 49 50 49 48 49 50 51 52 53 54 54 54 54 54 54 53 52 50 49 47 45 44 43 43 43 43 44 43 42 41 39 38 38 37 37 36 36
6 2 3 5 4 5 7 5 3 4 4 4 5 6 7 9 10 5 1 3 5 7 8 5 7 10 6 4 4 5 5 6 7 17 25 24 27 34 37 39 43 46 48 49 48 47 47 46 46 48 51 51 50 50 50 50 51 52 53 54 54 54 53 52 52 51 51 49 48 46 45 44 44 44 44 44 44 43 41 40 39 39 38 38 38 37
4 1 1 2 1 3 4 3 2 4 6 6 7 8 10 9 8 7 3 4 7 7 8 8 10 9 7 8 11 9 5 6 7 12 23 28 31 34 35 37 40 42 45 46 46 45 45 45 47 51 53 52 52 51 51 51 51 52 52 53 53 53 52 51 51 51 51 49 48 47 45 44 44 43 43 43 43 42 41 40 40 39 38 38 38 38
2 2 2 4 5 6 6 6 8 7 7 9 11 13 14 13 11 6 5 7 7 5 6 9 9 9 11 12 15 14 7 7 8 7 15 24 31 34 36 39 40 41 44 46 45 45 45 46 49 52 53 52 53 53 52 51 52 52 52 52 52 51 51 51 50 50 50 50 49 47 45 43 41 41 41 41 41 42 41 40 40 39 38 38 38 38
1 2 4 6 9 9 10 14 16 12 11 12 13 15 17 15 11 7 8 8 8 6 7 7 6 9 14 14 17 18 10 7 9 6 13 23 30 33 36 38 39 40 41 42 43 44 45 47 50 52 52 51 52 53 52 51 51 51 51 51 50 50 50 50 50 50 50 50 49 48 46 43 41 40 39 40 40 41 41 40 40 39 38 38 38 39
1 2 4 5 8 11 13 17 17 13 11 13 14 15 18 18 12 10 12 8 10 9 9 6 7 11 14 15 18 17 9 7 9 12 18 24 29 32 34 35 36 38 38 39 42 44 47 48 51 52 52 51 52 52 51 51 50 49 49 49 49 49 50 50 50 50 50 50 50 48 46 44 42 41 40 40 41 41 41 41 40 39 38 38 39 39
3 2 3 5 9 14 16 14 12 10 10 12 14 14 15 17 16 14 12 9 10 10 8 7 10 13 13 14 15 10 6 9 11 11 14 19 25 28 30 31 34 36 38 41 43 46 48 50 52 53 52 51 52 52 52 51 51 50 50 49 49 49 50 49 50 50 50 50 49 47 46 44 43 42 41 41 41 41 41 41 41 40 39 39 39 39
3 2 3 5 7 12 13 8 7 9 10 11 12 11 13 14 13 13 10 8 8 8 5 5 8 10 9 8 7 5 4 6 7 8 14 21 27 28 28 30 33 35 39 43 45 47 48 49 51 51 51 51 52 53 53 52 52 51 50 49 49 49 49 49 49 49 49 48 47 46 45 44 43 43 42 42 41 41 41 41 41 41 40 40 40 39
3 1 3 4 4 8 7 7 13 15 10 8 7 10 15 11 3 4 2 1 2 5 5 5 5 7 7 4 3 3 7 5 2 4 11 19 25 28 28 29 31 34 38 42 45 46 47 47 48 49 49 50 51 51 52 52 51 50 49 49 49 48 48 47 47 48 47 46 45 44 44 43 43 43 42 42 41 41 40 41 41 41 41 41 41 40
3 2 2 3 3 6 6 10 16 12 6 4 2 9 14 11 9 8 8 10 8 2 5 6 6 6 6 5 2 3 8 7 6 6 5 12 19 27 31 32 35 37 39 42 44 45 47 47 48 49 49 50 50 50 51 51 51 51 50 50 49 47 47 47 46 46 45 44 44 43 43 42 42 42 42 41 41 40 40 40 41 41 41 40 40 40
4 3 1 1 1 5 9 13 11 1 1 4 2 9 13 12 12 11 9 11 12 6 2 4 7 5 5 5 2 5 9 8 10 14 9 4 12 20 25 28 33 36 38 41 43 44 47 47 48 48 48 48 48 47 47 48 49 49 48 48 47 47 47 46 46 45 44 43 43 42 41 41 42 41 41 40 40 40 40 40 40 40 40 40 40 40
4 3 1 1 2 4 8 9 2 6 2 4 3 10 11 8 7 6 5 11 16 14 12 9 7 5 6 6 5 6 15 20 26 29 24 11 3 12 16 19 24 29 32 35 38 41 44 45 45 45 45 45 44 43 44 46 47 46 46 46 46 46 46 46 45 44 43 42 41 41 40 40 40 40 39 39 39 39 39 39 39 39 39 39 39 40
4 3 2 2 2 3 4 4 2 4 7 7 2 9 12 8 9 9 6 12 18 16 14 12 10 8 6 6 4 3 14 28 33 32 30 23 12 8 12 14 18 23 27 30 33 36 39 41 42 43 42 41 40 40 42 44 44 44 44 44 45 45 45 45 44 43 42 41 40 39 39 39 38 38 37 37 38 39 38 38 37 36 36 37 38 38
6 4 2 2 3 1 2 4 3 3 7 4 1 8 11 7 9 9 4 8 14 14 13 11 10 10 7 5 4 7 4 21 24 21 27 27 21 17 15 15 16 20 23 25 28 31 32 34 35 35 36 37 38 39 40 41 41 41 41 42 42 43 43 43 43 42 40 40 39 38 37 37 37 36 36 36 37 37 36 35 34 33 33 35 36 36
8 6 3 2 2 1 2 3 3 3 2 2 7 12 11 9 9 8 3 3 11 16 17 13 10 11 9 8 9 14 9 11 11 10 20 23 22 24 25 22 20 20 20 21 23 24 25 26 26 27 30 32 34 36 36 37 37 37 38 39 40 40 41 41 41 40 39 38 37 36 36 36 36 35 34 35 36 35 34 33 31 31 31 33 33 33
9 7 4 3 2 2 1 2 3 2 2 5 14 16 17 16 11 5 2 3 10 18 22 16 12 12 11 11 12 8 2 8 5 7 15 19 22 27 29 29 29 26 24 22 21 22 22 23 23 23 24 26 28 30 31 32 34 35 36 37 37 38 39 40 40 39 38 37 35 34 35 35 35 35 34 34 34 33 32 31 30 29 29 31 31 31
8 5 4 3 4 3 3 3 3 2 2 8 14 17 24 26 14 1 2 4 9 18 23 19 14 14 16 17 14 7 6 8 5 7 15 19 23 28 29 31 32 31 31 29 26 26 25 25 25 24 24 23 24 25 26 28 29 31 33 33 34 35 36 36 36 36 36 36 35 34 34 35 35 35 34 34 33 32 31 30 30 30 30 31 31 31
3 3 3 4 4 4 4 3 3 2 1 9 16 22 28 24 9 3 4 4 11 18 21 20 19 20 21 19 14 11 12 15 14 15 21 24 26 28 28 29 30 30 32 32 31 32 31 29 28 28 26 24 22 21 22 24 25 26 28 28 30 31 32 32 33 33 34 35 35 36 36 36 36 35 34 33 32 32 32 31 31 31 31 31 31 32
3 2 2 3 3 3 3 3 3 2 4 12 20 24 22 11 1 3 5 7 13 18 18 19 23 26 25 21 18 18 20 24 24 24 26 27 28 28 27 27 28 29 29 29 30 31 31 31 29 28 26 23 21 20 20 20 21 22 22 23 25 27 28 29 31 32 33 35 36 37 37 36 36 35 34 34 34 34 34 33 32 32 32 32 32 33
2 2 2 2 2 2 3 2 1 1 6 17 19 15 12 8 3 5 6 9 16 21 21 21 24 28 27 24 24 25 26 27 28 28 28 29 29 28 28 27 28 28 28 27 27 26 26 28 27 25 23 20 19 18 17 18 18 18 17 18 19 20 22 24 26 28 30 31 33 35 36 36 36 35 35 34 34 34 35 34 33 33 33 33 34 34
3 0 1 1 1 1 1 0 2 2 7 13 10 4 7 8 11 10 7 9 19 26 25 23 25 28 29 27 26 27 28 28 29 28 28 29 29 28 28 27 26 26 26 26 24 22 22 24 23 21 20 17 16 16 15 15 16 16 16 16 15 16 17 18 20 21 23 25 26 28 29 31 32 33 33 33 33 33 34 34 34 34 34 34 35 35
4 4 3 3 3 3 2 2 3 5 5 5 6 7 9 10 14 17 14 13 20 25 25 25 26 28 29 29 28 29 29 29 29 29 29 28 28 28 27 26 25 24 24 23 22 21 20 20 19 17 16 15 13 13 12 12 13 13 13 13 14 16 18 19 19 20 21 21 22 23 23 24 25 26 28 29 31 32 32 32 33 34 35 35 36 36
5 8 7 4 5 6 4 2 6 9 8 8 12 14 16 15 17 21 21 19 20 22 23 23 24 26 28 28 29 29 29 28 28 27 28 27 27 27 26 24 23 22 22 21 20 18 17 16 15 14 13 11 10 9 8 8 8 8 8 9 10 12 15 17 18 20 20 21 21 21 22 23 23 22 22 23 25 27 28 29 31 32 34 35 35 36
7 11 8 5 6 5 3 4 8 11 10 8 13 15 18 19 19 21 22 22 20 20 21 20 21 23 24 25 27 26 25 26 27 26 26 26 26 26 25 24 22 21 21 20 19 17 16 15 14 13 11 9 7 6 4 4 5 5 6 6 6 7 8 10 11 14 15 17 17 18 19 21 23 23 22 21 21 22 23 25 27 30 32 34 35 36
8 11 7 5 5 4 5 7 11 13 10 1 8 11 16 18 18 18 18 19 19 18 18 17 17 20 22 22 23 23 22 23 25 25 25 25 24 23 23 23 21 19 19 18 17 16 16 16 15 13 11 10 8 5 3 2 3 4 6 6 7 6 6 6 7 8 9 10 13 15 17 19 21 22 21 20 20 21 22 24 27 29 31 33 33 34
8 8 6 6 7 7 7 7 9 11 8 5 3 6 14 17 18 17 16 17 18 17 17 17 16 16 18 19 20 20 20 20 22 22 23 23 23 22 22 22 20 18 16 15 14 13 14 14 13 12 11 11 9 7 4 2 1 3 5 7 8 8 8 7 7 7 8 8 10 12 15 17 19 19 20 21 22 23 24 25 26 28 30 32 32 32
5 6 5 6 6 6 3 4 8 8 7 13 18 17 15 16 19 19 17 17 18 15 14 16 17 15 14 16 17 18 18 18 19 20 20 19 20 20 20 20 20 18 15 12 10 10 11 11 11 12 13 13 12 10 8 6 4 4 5 8 9 10 9 8 8 8 8 9 10 11 13 15 18 19 21 22 24 24 24 24 25 26 28 30 30 29
8 8 7 6 7 10 13 16 18 15 14 22 30 26 18 18 21 21 19 17 16 12 9 11 15 15 14 14 16 18 18 16 16 18 18 16 16 17 18 19 19 18 16 12 9 8 9 9 10 12 14 15 15 13 11 9 8 6 4 5 8 10 10 9 8 8 7 8 10 12 13 15 17 19 21 23 24 23 23 23 23 24 26 27 27 27
Wind_Direction
182 183 199 206 211 208 212 210 209 233 251 241 200 208 223 231 255 240 244 255 187 178 204 200 191 190 180 176 177 177 178 181 180 182 186 187 188 191 193 194 194 195 199 201 201 203 204 205 206 206 207 209 210 212 213 213 214 215 214 214 213 212 212 211 210 209 207 207 207 206 208 208 208 208 208 210 212 212 210 208 210 216 219 224 230 234
181 201 218 211 204 203 211 204 193 213 234 249 237 229 244 231 250 259 250 263 206 191 218 200 180 195 192 182 179 176 178 186 186 185 188 187 189 193 195 197 198 199 199 198 199 202 204 205 205 206 207 208 208 210 213 214 214 215 215 214 213 212 212 212 211 210 208 206 207 208 210 210 210 210 210 211 212 214 213 212 214 217 220 225 231 233
189 221 222 203 177 186 206 193 191 208 218 233 237 234 256 239 263 278 264 260 217 206 226 194 184 204 201 190 182 179 184 192 191 190 189 187 189 193 195 198 199 200 198 196 197 199 202 204 205 206 207 208 209 211 213 214 214 215 215 215 214 212 211 211 211 212 210 208 209 211 213 213 213 213 214 214 214 215 214 214 216 218 220 224 230 230
195 229 214 178 163 186 209 203 192 206 217 221 221 224 243 237 180 252 262 260 213 215 219 185 195 210 202 198 191 190 192 193 195 195 192 190 190 193 196 198 198 198 197 197 196 197 200 202 203 205 207 208 209 211 212 212 213 213 214 215 214 213 213 212 212 213 213 211 210 212 215 216 217 217 216 215 216 216 216 217 218 217 217 222 229 228
228 240 169 158 180 190 207 218 199 204 224 224 220 224 230 230 222 232 297 328 300 267 233 159 217 252 195 196 207 201 198 198 197 196 196 197 197 196 197 199 199 199 198 196 196 197 198 200 202 203 206 207 208 209 211 212 212 213 213 214 214 214 215 215 214 214 214 214 212 212 214 216 218 219 217 215 216 216 217 218 219 217 215 221 228 226
237 237 167 168 190 191 204 218 210 204 219 235 226 223 220 230 241 244 329 332 321 298 262 147 215 288 204 194 204 201 199 205 199 194 199 203 201 198 199 200 201 202 201 199 198 199 200 201 202 203 205 207 208 210 212 212 213 213 214 214 214 215 216 216 216 215 214 214 213 212 212 213 215 217 217 216 216 216 216 218 219 218 215 218 223 223
226 222 182 184 192 192 207 216 215 200 205 239 226 218 215 227 248 242 22 269 243 264 264 154 184 265 240 201 204 194 196 205 197 196 203 201 199 198 200 201 202 204 203 202 202 201 201 202 202 203 205 208 210 211 212 213 213 214 215 215 215 215 216 216 216 215 215 215 214 214 213 213 214 216 217 217 217 218 219 219 220 219 217 217 220 221
198 197 192 200 194 194 210 214 209 190 202 236 216 200 199 220 244 231 187 239 245 277 284 261 178 235 250 216 210 194 196 205 197 200 205 200 199 200 202 202 202 204 203 203 203 202 202 203 203 204 206 209 211 211 211 212 214 214 215 216 216 217 217 217 216 215 215 216 216 215 215 216 216 216 217 216 217 218 220 221 221 222 220 219 220 221
187 195 194 199 200 203 211 211 199 189 214 234 170 179 190 216 242 212 172 237 254 296 280 268 202 223 263 235 217 199 196 203 202 203 203 199 201 202 203 204 203 205 204 204 204 203 203 204 205 206 207 209 210 210 211 212 214 215 215 216 217 217 218 218 217 216 216 217 217 217 217 218 218 218 219 219 218 219 220 221 223 223 223 222 223 223
189 197 190 197 213 212 212 213 194 195 224 204 146 179 201 227 242 183 169 218 224 233 255 256 215 204 274 248 209 203 202 204 205 205 203 201 202 202 203 204 204 205 205 206 206 204 204 204 206 207 208 208 208 210 212 213 214 214 215 216 216 217 217 218 218 217 216 216 218 218 219 219 218 218 219 220 221 221 221 222 223 224 224 224 224 223
222 200 189 198 217 203 192 209 202 205 216 170 153 205 258 257 254 157 170 188 220 236 245 250 225 183 257 260 200 201 207 204 204 205 205 205 205 205 204 203 203 204 206 208 207 206 205 206 207 207 207 208 208 210 211 212 214 214 215 215 216 217 217 218 218 217 217 216 218 219 219 220 220 219 219 220 221 222 222 222 223 224 225 225 225 224
242 220 193 200 209 194 171 203 210 209 211 198 179 192 250 284 301 274 161 166 221 237 243 246 226 193 229 257 211 206 210 205 202 200 200 204 205 205 206 205 203 204 206 207 206 206 205 205 206 206 207 208 208 209 210 211 213 214 214 215 215 216 217 218 218 218 218 217 218 220 220 221 221 221 221 221 222 222 222 223 224 225 225 226 227 226
229 230 231 219 207 195 182 199 210 206 206 207 190 175 199 232 235 222 197 188 223 237 244 227 200 204 228 235 212 206 212 212 207 203 199 200 203 203 203 204 204 204 205 205 205 205 204 204 204 205 206 207 207 208 209 210 211 212 214 214 215 216 217 219 219 219 219 219 219 220 220 221 222 223 224 224 224 224 223 224 225 226 226 226 227 226
216 226 225 226 216 198 193 191 194 203 199 199 197 185 192 196 207 216 214 229 226 240 246 209 173 217 234 232 211 198 207 214 212 211 206 202 202 201 201 201 202 204 204 205 205 204 205 204 204 204 206 207 207 208 208 209 210 211 212 213 215 217 218 219 220 220 220 221 221 221 221 222 223 225 226 226 226 225 224 225 227 229 228 228 228 226
218 226 212 213 206 181 196 202 187 183 190 202 198 185 201 201 194 203 197 203 207 237 248 201 174 202 192 216 211 193 202 209 211 215 212 208 208 204 201 199 200 202 203 204 205 205 206 205 204 204 206 206 207 208 208 208 209 210 211 213 215 217 218 219 220 221 222 223 223 223 224 224 224 225 227 227 228 227 226 226 228 230 231 231 230 227
246 240 198 218 216 180 197 207 183 175 194 207 191 192 215 199 158 194 203 184 167 209 240 206 199 216 204 247 237 193 202 205 208 213 210 210 212 207 201 199 199 201 202 203 204 207 207 206 205 205 206 206 207 208 209 208 209 209 211 213 216 218 219 219 220 221 223 224 224 225 226 226 226 227 228 229 229 228 228 227 229 231 232 232 232 230
307 274 337 320 278 222 205 193 180 188 192 175 190 206 208 143 149 219 240 217 123 193 231 204 211 254 269 267 254 170 194 206 206 208 204 203 204 199 199 201 201 202 202 203 204 207 207 206 206 207 206 206 206 208 209 209 210 210 211 213 215 217 219 219 221 222 223 224 225 226 227 227 228 228 229 229 229 228 229 228 229 231 233 233 233 232
343 288 299 300 272 271 246 203 195 195 180 155 197 200 131 101 167 200 226 268 204 217 256 211 192 213 193 234 235 158 177 205 206 204 203 201 195 191 197 202 202 203 204 205 206 207 207 206 206 207 207 207 207 209 210 210 211 211 212 214 215 216 218 219 221 222 223 224 225 226 227 228 229 229 229 229 229 229 229 229 229 231 233 233 233 232
333 301 290 256 227 303 312 229 212 205 199 203 190 161 144 166 198 183 194 228 214 225 278 284 220 204 192 219 220 184 180 193 202 205 206 203 194 191 197 200 201 203 204 205 206 206 206 206 207 207 207 208 208 210 210 211 211 211 212 214 216 218 219 220 221 222 223 224 225 227 228 230 231 231 230 229 229 230 229 230 230 231 233 234 234 233
328 312 291 302 324 327 317 215 210 216 212 209 175 157 170 189 193 188 187 193 202 223 250 274 266 228 222 215 193 193 191 183 190 202 206 206 200 195 197 199 200 200 202 204 205 206 206 206 208 208 209 208 208 210 210 210 210 211 212 213 215 217 218 219 221 222 223 224 225 227 229 230 231 232 231 229 229 229 229 230 230 231 233 234 235 234
335 16 284 312 338 326 259 199 196 209 215 208 196 186 189 194 173 189 205 155 160 200 200 226 260 253 248 219 189 199 204 189 182 190 202 208 205 201 198 199 200 200 201 203 204 205 206 207 208 209 209 209 208 209 209 209 210 211 212 213 215 216 216 218 220 221 223 224 225 227 229 230 232 232 232 230 229 229 228 229 230 231 233 235 236 236
313 353 295 297 326 309 250 262 322 332 293 245 222 207 201 199 149 178 228 218 150 186 178 184 246 262 250 205 191 199 208 205 186 183 195 202 204 205 201 200 201 201 202 203 204 205 206 207 207 207 208 207 206 207 208 209 210 211 212 213 214 215 216 218 219 221 223 224 225 227 229 232 233 233 233 232 231 230 229 229 229 231 233 235 236 236
309 304 293 280 280 264 262 271 288 295 285 266 252 229 205 194 164 186 221 216 186 209 173 133 258 267 252 208 199 201 209 214 195 183 191 199 202 205 203 202 202 202 203 204 205 205 206 206 206 205 206 206 206 207 208 209 209 210 212 213 214 215 216 218 220 221 223 224 226 228 230 232 233 234 234 233 233 232 230 230 230 231 233 234 235 236
330 326 316 304 288 274 270 267 269 273 268 271 283 265 227 215 198 199 209 181 184 214 195 210 270 268 268 235 217 224 226 226 199 183 190 200 204 206 205 202 202 202 203 204 204 205 205 205 203 202 204 206 205 207 208 208 209 211 212 213 214 216 217 218 219 221 222 224 226 228 229 231 232 233 234 234 234 234 232 231 231 231 233 234 235 236
338 345 354 339 324 295 278 252 268 332 10 347 301 291 283 250 210 193 127 157 206 211 182 195 246 254 276 305 286 282 259 251 221 189 194 202 204 207 206 202 200 200 201 202 203 203 202 201 200 200 204 205 205 206 208 208 210 211 212 213 215 217 217 217 218 219 221 224 226 227 228 230 231 232 234 235 235 235 234 233 233 233 233 234 235 236
322 287 343 336 283 257 246 224 277 331 338 314 290 293 304 291 241 211 146 167 222 211 172 198 235 254 291 302 287 283 262 260 255 199 199 207 205 204 203 200 199 199 198 200 200 199 199 199 199 202 204 204 204 206 207 208 210 211 212 214 215 216 216 216 217 219 221 223 225 226 228 230 232 234 235 236 236 236 235 234 234 235 235 235 235 235
294 245 238 217 239 254 261 282 289 289 289 287 290 294 297 297 284 255 182 183 200 179 187 216 229 253 275 274 270 272 266 270 268 209 196 208 206 201 198 196 197 197 197 198 198 197 197 198 199 203 205 204 204 206 207 208 210 211 212 213 214 215 216 217 218 219 221 223 225 227 230 232 234 236 237 237 237 237 236 235 235 236 236 236 236 236
251 271 271 233 247 260 268 280 284 281 273 267 277 287 284 284 286 267 233 203 157 153 221 230 204 232 251 251 255 263 269 284 279 231 198 202 199 196 195 193 194 195 196 196 194 194 196 197 199 203 204 204 204 205 207 208 210 211 212 213 214 214 216 218 219 220 221 223 225 227 230 232 234 236 237 238 238 238 237 237 236 237 237 238 238 237
224 259 280 268 278 281 277 277 274 268 260 257 261 269 275 276 270 257 248 213 156 178 225 214 183 217 242 246 250 257 259 262 260 235 215 204 193 190 191 189 190 192 192 192 192 194 196 197 199 202 204 204 203 204 206 207 209 211 211 213 214 215 216 218 219 221 222 223 225 227 230 231 233 235 237 238 238 238 238 238 237 237 238 238 239 239
265 253 285 304 303 294 286 275 262 261 273 280 274 267 272 273 261 252 249 215 181 198 217 193 194 219 238 243 250 261 256 245 246 235 221 202 188 186 188 187 189 189 189 190 192 195 197 198 200 203 204 203 203 204 205 207 209 210 211 212 214 215 217 218 219 221 222 224 226 229 230 231 233 235 236 237 238 239 239 238 238 238 238 239 240 241
290 291 323 331 317 299 293 286 285 296 296 284 279 290 301 285 251 237 242 224 199 207 213 189 205 235 252 251 261 301 314 264 236 212 208 199 189 187 187 187 189 189 188 190 193 195 198 199 201 203 204 203 204 205 206 208 210 211 211 212 213 215 217 218 219 221 223 225 228 230 231 232 233 235 236 238 239 240 240 239 239 239 239 240 240 241
298 299 334 2 334 292 297 329 322 316 305 274 284 330 332 321 259 189 164 34 248 216 193 171 198 244 268 276 277 352 16 2 308 238 222 208 191 185 187 188 188 189 189 191 193 195 196 198 200 203 204 204 204 205 207 210 210 210 212 213 214 215 216 217 219 221 224 228 230 231 232 233 235 236 237 238 239 240 241 241 241 241 241 241 241 242
267 271 334 19 319 281 302 327 317 317 321 278 299 1 348 353 27 46 50 28 355 274 184 192 220 255 280 285 262 53 42 18 350 351 283 230 202 190 189 188 189 190 191 192 193 194 196 198 201 204 206 206 205 207 210 211 211 213 216 216 215 215 215 217 219 222 226 230 231 233 234 235 236 237 238 240 240 241 242 242 242 243 243 243 243 244
254 269 325 80 274 287 305 314 308 306 137 244 131 34 359 358 24 32 41 25 4 357 349 260 259 290 325 317 303 93 81 57 39 38 28 271 220 202 194 191 191 191 192 193 194 194 196 199 202 205 207 207 208 211 213 214 216 218 219 217 216 216 217 218 220 224 228 231 232 234 236 236 237 239 240 241 241 241 242 242 244 245 245 246 245 245
247 263 271 193 230 282 307 319 312 149 203 273 80 37 357 342 8 14 37 31 17 7 359 340 314 345 40 27 7 92 103 82 59 46 42 43 184 199 192 189 191 191 190 191 193 194 196 199 202 205 207 208 210 212 213 215 217 217 216 216 217 218 218 219 221 225 229 231 232 234 236 236 238 239 241 242 241 242 242 243 245 246 246 247 247 247
221 245 252 227 244 279 314 325 192 194 301 310 30 18 356 347 356 356 13 24 17 7 358 345 328 345 46 53 11 81 94 78 64 46 38 47 70 130 164 174 182 186 189 190 192 195 198 201 203 205 207 208 210 212 213 215 215 215 216 217 218 219 219 220 222 225 228 231 232 234 236 237 238 239 241 241 241 241 242 243 245 247 247 248 248 249
202 222 244 236 229 234 303 300 272 288 322 330 15 354 344 324 329 338 347 10 9 5 357 344 334 343 2 18 320 273 26 64 62 37 29 43 62 85 114 139 160 174 182 187 191 195 198 201 203 204 205 207 208 210 212 212 213 215 216 217 218 219 220 221 223 226 229 231 233 235 236 237 238 239 240 241 240 241 242 244 246 247 248 248 248 249
190 204 217 217 215 28 349 309 313 305 291 342 337 327 309 284 292 290 258 359 4 1 356 346 342 353 354 353 322 285 298 47 58 16 19 38 58 77 93 108 126 146 163 174 185 191 194 197 199 200 203 205 206 208 210 211 213 215 216 218 219 220 221 222 225 227 230 232 235 237 238 239 240 240 241 241 241 242 243 245 246 248 248 248 249 250
186 200 230 257 260 320 336 282 302 267 228 331 335 323 310 309 307 273 217 35 2 353 353 349 349 1 4 2 353 320 340 77 71 5 22 41 60 73 85 96 105 119 133 147 165 174 179 184 186 188 194 198 202 207 210 214 216 217 219 220 221 221 223 225 228 230 232 234 237 239 241 242 242 242 242 242 243 245 246 246 248 248 249 250 250 252
179 190 227 246 239 253 251 250 281 249 257 327 331 321 314 315 315 266 118 42 352 342 349 352 354 4 12 16 19 29 75 85 83 45 46 57 66 72 81 89 96 107 115 122 134 144 152 162 168 169 173 180 190 199 205 210 214 217 221 223 223 225 229 232 234 236 237 238 239 240 241 242 243 243 244 244 246 247 248 249 249 249 249 250 252 253
155 178 219 230 237 250 240 244 281 249 8 341 327 321 320 318 318 95 82 8 335 334 347 359 4 9 18 27 33 44 61 70 74 67 62 65 68 71 77 85 91 100 108 114 122 130 136 143 148 151 154 159 168 179 188 196 202 209 216 221 225 229 234 237 238 238 238 239 240 240 240 241 243 244 246 247 249 249 249 249 249 249 250 251 252 253
144 165 214 220 232 243 215 230 280 252 35 357 331 327 336 344 64 71 29 3 347 343 351 6 13 18 25 33 38 44 57 65 66 62 60 62 64 67 72 81 87 93 102 110 118 126 130 132 135 138 141 145 152 158 165 176 185 193 203 211 220 227 231 234 236 237 237 238 238 239 240 242 244 245 247 248 249 249 249 249 250 250 251 251 252 253
140 189 227 224 227 227 215 252 314 286 359 353 341 341 8 25 7 354 3 9 9 5 3 9 16 22 28 34 36 41 50 55 56 58 58 59 62 64 68 74 80 85 92 100 107 115 122 125 126 128 131 137 147 154 160 169 175 180 189 198 207 217 224 229 234 236 238 239 240 241 242 243 245 247 248 249 249 249 250 250 250 250 250 250 251 251
51 22 299 293 317 356 205 360 23 313 322 341 346 20 52 24 1 8 21 18 17 15 9 9 16 22 29 35 37 39 44 47 49 51 53 55 58 61 64 68 72 78 84 88 92 100 110 116 117 119 123 129 138 148 160 172 179 185 193 199 207 215 221 226 230 233 237 239 241 244 245 246 248 249 249 250 249 249 250 250 251 251 250 250 249 249
17 4 356 307 300 313 269 269 336 318 314 358 20 41 61 45 16 18 28 28 24 19 9 7 15 22 28 34 36 37 38 40 44 47 48 51 55 57 61 64 67 72 78 81 84 89 96 103 108 112 116 121 127 138 149 162 175 188 197 206 216 222 227 232 234 237 239 241 243 245 247 248 249 249 250 250 250 249 249 249 249 249 249 249 248 248
338 360 8 337 307 308 297 340 2 341 347 46 57 50 55 51 23 12 13 18 24 21 11 9 17 24 29 34 35 34 34 36 40 43 45 48 52 55 59 63 65 68 71 73 76 80 85 93 99 102 106 110 117 128 142 154 169 180 189 202 216 223 228 233 236 240 242 243 244 245 246 248 249 248 248 248 247 249 249 249 248 249 249 249 248 248
345 358 4 348 332 330 338 16 360 336 337 43 67 50 40 41 32 16 4 1 9 14 12 14 22 28 32 35 34 32 34 36 37 37 39 42 46 50 54 58 61 64 66 67 70 75 82 87 88 88 91 93 97 108 133 164 185 196 199 205 216 225 229 232 235 240 243 242 242 242 243 245 246 246 245 244 244 245 247 247 247 247 247 247 247 247
336 343 348 349 341 314 283 302 315 315 311 58 94 48 21 19 22 14 1 355 359 3 4 11 21 27 30 34 34 32 33 35 34 33 33 35 38 43 46 49 52 59 65 68 69 72 76 79 79 82 84 82 77 77 88 145 199 218 219 219 224 229 232 233 233 238 243 241 238 236 237 239 241 241 240 239 239 239 240 241 243 244 245 246 247 248
321 333 345 345 323 287 273 298 322 327 310 238 196 17 4 354 352 355 354 353 356 359 359 0 8 20 28 31 32 31 31 33 35 33 32 32 33 34 37 38 40 46 54 62 68 71 71 73 74 74 72 68 63 53 40 25 278 245 236 231 232 234 235 237 239 240 243 242 237 233 233 234 236 237 235 234 235 236 237 238 239 241 243 245 246 248
343 346 348 341 316 277 273 351 352 341 305 272 280 305 330 331 328 332 337 343 348 349 348 350 357 14 31 34 32 30 28 29 31 30 30 33 34 33 30 27 28 33 38 44 60 73 73 69 66 62 59 56 51 44 32 12 340 296 259 244 237 234 233 236 243 248 251 251 247 241 236 233 232 232 232 232 234 237 237 238 239 241 242 244 246 248
356 343 329 313 291 278 285 302 308 299 283 282 286 293 304 310 313 317 319 326 335 333 326 339 352 7 22 22 19 20 19 18 21 22 24 30 34 34 32 24 19 23 28 30 39 60 68 65 59 58 58 55 49 44 37 26 13 356 319 276 250 239 234 235 242 251 258 263 259 250 242 236 232 231 232 233 235 238 239 239 240 241 242 244 245 246